Time,TemperatureF,DewpointF,PressureIn,WindDirection,WindDirectionDegrees,WindSpeedMPH,WindSpeedGustMPH,Humidity,HourlyPrecipIn,Conditions,Clouds,dailyrainin,SoftwareType,DateUTC
2013-06-05 00:02:00,47.0,37.0,30.21,NNE,15,0.0,1.0,69,0.00,,,0.00,,2013-06-05 06:02:00,
2013-06-05 00:11:00,47.0,37.0,30.21,NNE,15,0.0,1.0,69,0.00,,,0.00,,2013-06-05 06:11:00,
2013-06-05 00:22:00,47.0,37.0,30.21,NNE,15,0.0,0.0,69,0.00,,,0.00,,2013-06-05 06:22:00,
2013-06-05 00:32:00,47.0,37.0,30.21,NNE,15,0.0,0.0,69,0.00,,,0.00,,2013-06-05 06:32:00,
2013-06-05 00:42:00,47.0,37.0,30.21,NNE,15,0.0,0.0,69,0.00,,,0.00,,2013-06-05 06:42:00,
2013-06-05 00:52:00,46.0,37.0,30.21,NNE,15,0.0,0.0,71,0.00,,,0.00,,2013-06-05 06:52:00,
2013-06-05 01:02:00,46.0,37.0,30.21,NNE,15,0.0,0.0,72,0.00,,,0.00,,2013-06-05 07:02:00,
2013-06-05 01:12:00,46.0,37.0,30.21,NNE,15,0.0,0.0,72,0.00,,,0.00,,2013-06-05 07:12:00,
2013-06-05 01:22:00,45.0,37.0,30.20,NNE,14,0.0,0.0,73,0.00,,,0.00,,2013-06-05 07:22:00,
2013-06-05 01:32:00,45.0,38.0,30.20,NNE,14,0.0,0.0,75,0.00,,,0.00,,2013-06-05 07:32:00,
2013-06-05 01:42:00,45.0,38.0,30.20,NNE,14,0.0,0.0,75,0.00,,,0.00,,2013-06-05 07:42:00,
2013-06-05 01:52:00,44.0,37.0,30.19,NNE,15,0.0,0.0,76,0.00,,,0.00,,2013-06-05 07:52:00,
2013-06-05 02:02:00,44.0,37.0,30.19,NNE,14,0.0,0.0,76,0.00,,,0.00,,2013-06-05 08:02:00,
2013-06-05 02:12:00,44.0,37.0,30.19,NNE,14,0.0,0.0,76,0.00,,,0.00,,2013-06-05 08:12:00,
2013-06-05 02:22:00,44.0,37.0,30.19,NNE,14,0.0,0.0,76,0.00,,,0.00,,2013-06-05 08:22:00,
2013-06-05 02:32:00,43.0,37.0,30.19,NNE,14,0.0,1.0,78,0.00,,,0.00,,2013-06-05 08:32:00,
2013-06-05 02:42:00,43.0,37.0,30.19,NNE,14,0.0,1.0,78,0.00,,,0.00,,2013-06-05 08:42:00,
2013-06-05 02:52:00,43.0,37.0,30.18,NNE,15,0.0,0.0,79,0.00,,,0.00,,2013-06-05 08:52:00,
2013-06-05 03:02:00,43.0,37.0,30.18,NNE,15,0.0,2.0,80,0.00,,,0.00,,2013-06-05 09:02:00,
2013-06-05 03:12:00,43.0,37.0,30.18,NNE,15,0.0,2.0,80,0.00,,,0.00,,2013-06-05 09:12:00,
2013-06-05 03:22:00,42.0,37.0,30.18,NNE,15,0.0,3.0,81,0.00,,,0.00,,2013-06-05 09:22:00,
2013-06-05 03:32:00,42.0,37.0,30.18,NNE,14,0.0,0.0,81,0.00,,,0.00,,2013-06-05 09:32:00,
2013-06-05 03:42:00,42.0,37.0,30.18,NNE,14,0.0,0.0,81,0.00,,,0.00,,2013-06-05 09:42:00,
2013-06-05 03:52:00,41.0,36.0,30.18,NNE,15,0.0,0.0,82,0.00,,,0.00,,2013-06-05 09:52:00,
2013-06-05 04:02:00,41.0,36.0,30.18,NNE,15,0.0,0.0,82,0.00,,,0.00,,2013-06-05 10:02:00,
2013-06-05 04:12:00,41.0,36.0,30.18,NNE,15,0.0,0.0,82,0.00,,,0.00,,2013-06-05 10:12:00,
2013-06-05 04:22:00,40.0,36.0,30.17,NNE,15,0.0,0.0,85,0.00,,,0.00,,2013-06-05 10:22:00,
2013-06-05 04:33:00,40.0,36.0,30.17,NNE,15,0.0,0.0,85,0.00,,,0.00,,2013-06-05 10:33:00,
2013-06-05 04:42:00,40.0,36.0,30.17,NNE,15,0.0,0.0,85,0.00,,,0.00,,2013-06-05 10:42:00,
2013-06-05 04:52:00,40.0,36.0,30.17,NNE,15,0.0,0.0,85,0.00,,,0.00,,2013-06-05 10:52:00,
2013-06-05 05:02:00,39.0,35.0,30.18,NNE,15,0.0,3.0,86,0.00,,,0.00,,2013-06-05 11:02:00,
2013-06-05 05:12:00,39.0,35.0,30.18,NNE,15,0.0,3.0,86,0.00,,,0.00,,2013-06-05 11:12:00,
2013-06-05 05:22:00,39.0,35.0,30.18,NNE,15,0.0,4.0,85,0.00,,,0.00,,2013-06-05 11:22:00,
2013-06-05 05:32:00,39.0,35.0,30.18,NNE,14,0.0,0.0,85,0.00,,,0.00,,2013-06-05 11:32:00,
2013-06-05 05:42:00,39.0,35.0,30.18,NNE,14,0.0,0.0,85,0.00,,,0.00,,2013-06-05 11:42:00,
2013-06-05 05:52:00,39.0,35.0,30.18,NNE,15,0.0,0.0,85,0.00,,,0.00,,2013-06-05 11:52:00,
2013-06-05 06:02:00,38.0,34.0,30.19,NNE,14,0.0,0.0,86,0.00,,,0.00,,2013-06-05 12:02:00,
2013-06-05 06:12:00,38.0,34.0,30.19,NNE,14,0.0,0.0,86,0.00,,,0.00,,2013-06-05 12:12:00,
2013-06-05 06:22:00,38.0,35.0,30.19,NNE,14,0.0,0.0,89,0.00,,,0.00,,2013-06-05 12:22:00,
2013-06-05 06:32:00,39.0,36.0,30.19,NNE,15,0.0,0.0,89,0.00,,,0.00,,2013-06-05 12:32:00,
2013-06-05 06:43:00,39.0,36.0,30.19,NNE,15,0.0,0.0,89,0.00,,,0.00,,2013-06-05 12:43:00,
2013-06-05 06:52:00,40.0,36.0,30.19,NNE,15,0.0,0.0,87,0.00,,,0.00,,2013-06-05 12:52:00,
2013-06-05 07:02:00,41.0,37.0,30.19,NNE,15,0.0,1.0,85,0.00,,,0.00,,2013-06-05 13:02:00,
2013-06-05 07:12:00,41.0,37.0,30.19,NNE,15,0.0,1.0,85,0.00,,,0.00,,2013-06-05 13:12:00,
2013-06-05 07:22:00,42.0,37.0,30.19,NNE,15,0.0,0.0,82,0.00,,,0.00,,2013-06-05 13:22:00,
2013-06-05 07:32:00,43.0,37.0,30.19,NNE,15,0.0,0.0,78,0.00,,,0.00,,2013-06-05 13:32:00,
2013-06-05 07:42:00,43.0,37.0,30.19,NNE,15,0.0,0.0,78,0.00,,,0.00,,2013-06-05 13:42:00,
2013-06-05 07:52:00,44.0,37.0,30.19,NNE,15,0.0,2.0,77,0.00,,,0.00,,2013-06-05 13:52:00,
2013-06-05 08:01:00,45.0,38.0,30.19,NNE,15,0.0,2.0,76,0.00,,,0.00,,2013-06-05 14:01:00,
2013-06-05 08:12:00,45.0,38.0,30.19,NNE,15,0.0,2.0,76,0.00,,,0.00,,2013-06-05 14:12:00,
2013-06-05 08:22:00,46.0,37.0,30.19,NNE,13,0.0,2.0,72,0.00,,,0.00,,2013-06-05 14:22:00,
2013-06-05 08:32:00,46.0,37.0,30.19,NNE,13,0.0,2.0,72,0.00,,,0.00,,2013-06-05 14:32:00,
2013-06-05 08:42:00,46.0,37.0,30.19,NNE,13,0.0,2.0,72,0.00,,,0.00,,2013-06-05 14:42:00,
2013-06-05 08:52:00,51.0,39.0,30.19,NNE,13,0.0,0.0,64,0.00,,,0.00,,2013-06-05 14:52:00,
2013-06-05 09:02:00,52.0,39.0,30.19,NNE,13,0.0,0.0,61,0.00,,,0.00,,2013-06-05 15:02:00,
2013-06-05 09:12:00,52.0,39.0,30.19,NNE,13,0.0,0.0,61,0.00,,,0.00,,2013-06-05 15:12:00,
2013-06-05 09:22:00,53.0,39.0,30.18,NNE,13,0.0,1.0,60,0.00,,,0.00,,2013-06-05 15:22:00,
2013-06-05 09:33:00,54.0,40.0,30.18,NNE,13,0.0,1.0,58,0.00,,,0.00,,2013-06-05 15:33:00,
2013-06-05 09:42:00,54.0,39.0,30.17,NNE,13,0.0,2.0,57,0.00,,,0.00,,2013-06-05 15:42:00,
2013-06-05 09:53:00,54.0,39.0,30.17,NNE,13,0.0,2.0,57,0.00,,,0.00,,2013-06-05 15:53:00,
2013-06-05 10:03:00,56.0,41.0,30.17,NNE,13,0.0,3.0,56,0.00,,,0.00,,2013-06-05 16:03:00,
2013-06-05 10:12:00,56.0,41.0,30.17,NNE,13,0.0,3.0,56,0.00,,,0.00,,2013-06-05 16:12:00,
2013-06-05 10:22:00,56.0,40.0,30.16,NNE,13,0.0,5.0,54,0.00,,,0.00,,2013-06-05 16:22:00,
2013-06-05 10:32:00,57.0,40.0,30.15,NNE,13,1.0,6.0,52,0.00,,,0.00,,2013-06-05 16:32:00,
2013-06-05 10:42:00,58.0,39.0,30.15,NNE,32,1.0,10.0,50,0.00,,,0.00,,2013-06-05 16:42:00,
2013-06-05 10:53:00,58.0,39.0,30.15,NNE,32,1.0,10.0,50,0.00,,,0.00,,2013-06-05 16:53:00,
2013-06-05 11:02:00,59.0,39.0,30.15,NNE,32,1.0,5.0,47,0.00,,,0.00,,2013-06-05 17:02:00,
2013-06-05 11:12:00,59.0,39.0,30.15,NNE,32,1.0,5.0,47,0.00,,,0.00,,2013-06-05 17:12:00,
2013-06-05 11:22:00,60.0,38.0,30.15,NNE,32,0.0,4.0,44,0.00,,,0.00,,2013-06-05 17:22:00,
2013-06-05 11:32:00,60.0,37.0,30.14,NE,40,2.0,9.0,43,0.00,,,0.00,,2013-06-05 17:32:00,
2013-06-05 11:42:00,60.0,37.0,30.14,NE,40,1.0,7.0,43,0.00,,,0.00,,2013-06-05 17:42:00,
2013-06-05 11:52:00,60.0,37.0,30.14,NE,40,1.0,7.0,43,0.00,,,0.00,,2013-06-05 17:52:00,
2013-06-05 12:02:00,61.0,38.0,30.13,NE,40,0.0,6.0,42,0.00,,,0.00,,2013-06-05 18:02:00,
2013-06-05 12:12:00,61.0,38.0,30.13,NE,40,0.0,6.0,42,0.00,,,0.00,,2013-06-05 18:12:00,
2013-06-05 12:22:00,62.0,37.0,30.12,NE,49,3.0,8.0,39,0.00,,,0.00,,2013-06-05 18:22:00,
2013-06-05 12:32:00,62.0,35.0,30.11,NNW,329,2.0,11.0,37,0.00,,,0.00,,2013-06-05 18:32:00,
2013-06-05 12:42:00,62.0,33.0,30.11,West,279,4.0,12.0,33,0.00,,,0.00,,2013-06-05 18:42:00,
2013-06-05 12:52:00,62.0,33.0,30.11,West,279,4.0,12.0,33,0.00,,,0.00,,2013-06-05 18:52:00,
2013-06-05 13:02:00,62.0,33.0,30.11,West,277,1.0,10.0,34,0.00,,,0.00,,2013-06-05 19:02:00,
2013-06-05 13:12:00,62.0,33.0,30.11,West,277,1.0,10.0,34,0.00,,,0.00,,2013-06-05 19:12:00,
2013-06-05 13:23:00,63.0,30.0,30.10,West,277,0.0,9.0,29,0.00,,,0.00,,2013-06-05 19:23:00,
2013-06-05 13:32:00,64.0,31.0,30.10,West,273,0.0,9.0,29,0.00,,,0.00,,2013-06-05 19:32:00,
2013-06-05 13:42:00,64.0,31.0,30.10,West,273,0.0,9.0,29,0.00,,,0.00,,2013-06-05 19:42:00,
2013-06-05 13:52:00,65.0,30.0,30.09,West,273,1.0,6.0,27,0.00,,,0.00,,2013-06-05 19:52:00,
2013-06-05 14:02:00,65.0,28.0,30.08,West,273,0.0,8.0,25,0.00,,,0.00,,2013-06-05 20:02:00,
2013-06-05 14:12:00,65.0,28.0,30.08,West,273,4.0,11.0,25,0.00,,,0.00,,2013-06-05 20:12:00,
2013-06-05 14:22:00,65.0,28.0,30.08,West,273,4.0,11.0,25,0.00,,,0.00,,2013-06-05 20:22:00,
2013-06-05 14:32:00,66.0,28.0,30.06,West,273,0.0,6.0,24,0.00,,,0.00,,2013-06-05 20:32:00,
2013-06-05 14:42:00,66.0,27.0,30.06,West,273,0.0,5.0,23,0.00,,,0.00,,2013-06-05 20:42:00,
2013-06-05 14:52:00,66.0,27.0,30.06,West,273,0.0,5.0,23,0.00,,,0.00,,2013-06-05 20:52:00,
2013-06-05 15:02:00,67.0,28.0,30.05,West,273,5.0,9.0,23,0.00,,,0.00,,2013-06-05 21:02:00,
2013-06-05 15:11:00,67.0,28.0,30.04,West,273,4.0,10.0,23,0.00,,,0.00,,2013-06-05 21:11:00,
2013-06-05 15:22:00,67.0,28.0,30.04,West,273,4.0,10.0,23,0.00,,,0.00,,2013-06-05 21:22:00,
2013-06-05 15:33:00,68.0,28.0,30.03,West,273,5.0,10.0,22,0.00,,,0.00,,2013-06-05 21:33:00,
2013-06-05 15:43:00,69.0,29.0,30.03,West,271,2.0,8.0,22,0.00,,,0.00,,2013-06-05 21:43:00,
2013-06-05 15:53:00,69.0,29.0,30.03,West,271,2.0,8.0,22,0.00,,,0.00,,2013-06-05 21:53:00,
2013-06-05 16:02:00,68.0,30.0,30.02,West,267,0.0,7.0,24,0.00,,,0.00,,2013-06-05 22:02:00,
2013-06-05 16:12:00,68.0,30.0,30.02,West,267,0.0,7.0,24,0.00,,,0.00,,2013-06-05 22:12:00,
2013-06-05 16:22:00,68.0,30.0,30.01,WSW,257,0.0,4.0,24,0.00,,,0.00,,2013-06-05 22:22:00,
2013-06-05 16:32:00,68.0,30.0,30.01,WSW,257,0.0,4.0,24,0.00,,,0.00,,2013-06-05 22:32:00,
2013-06-05 16:42:00,69.0,29.0,30.00,WSW,257,0.0,3.0,22,0.00,,,0.00,,2013-06-05 22:42:00,
2013-06-05 16:52:00,69.0,29.0,30.00,WSW,257,0.0,3.0,22,0.00,,,0.00,,2013-06-05 22:52:00,
2013-06-05 17:02:00,70.0,28.0,29.99,WSW,257,3.0,8.0,21,0.00,,,0.00,,2013-06-05 23:02:00,
2013-06-05 17:12:00,70.0,28.0,29.99,WSW,257,1.0,9.0,21,0.00,,,0.00,,2013-06-05 23:12:00,
2013-06-05 17:22:00,70.0,28.0,29.99,WSW,257,1.0,9.0,21,0.00,,,0.00,,2013-06-05 23:22:00,
2013-06-05 17:32:00,71.0,29.0,29.98,WSW,257,0.0,4.0,21,0.00,,,0.00,,2013-06-05 23:32:00,
2013-06-05 17:42:00,71.0,29.0,29.98,WSW,257,0.0,4.0,21,0.00,,,0.00,,2013-06-05 23:42:00,
2013-06-05 17:52:00,70.0,30.0,29.98,WSW,257,1.0,5.0,23,0.00,,,0.00,,2013-06-05 23:52:00,
2013-06-05 18:02:00,70.0,28.0,29.97,WSW,257,2.0,8.0,21,0.00,,,0.00,,2013-06-06 00:02:00,
2013-06-05 18:22:00,70.0,29.0,29.96,WSW,257,0.0,3.0,22,0.00,,,0.00,,2013-06-06 00:22:00,
2013-06-05 18:32:00,71.0,28.0,29.96,WSW,257,0.0,6.0,20,0.00,,,0.00,,2013-06-06 00:32:00,
2013-06-05 18:42:00,71.0,28.0,29.96,WSW,257,0.0,6.0,20,0.00,,,0.00,,2013-06-06 00:42:00,
2013-06-05 18:52:00,71.0,29.0,29.95,WSW,257,1.0,4.0,21,0.00,,,0.00,,2013-06-06 00:52:00,
2013-06-05 19:02:00,71.0,28.0,29.95,WSW,257,0.0,3.0,20,0.00,,,0.00,,2013-06-06 01:02:00,
2013-06-05 19:12:00,71.0,28.0,29.95,WSW,257,0.0,3.0,20,0.00,,,0.00,,2013-06-06 01:12:00,
2013-06-05 19:22:00,72.0,30.0,29.95,WSW,257,0.0,3.0,21,0.00,,,0.00,,2013-06-06 01:22:00,
2013-06-05 19:32:00,72.0,30.0,29.95,WSW,257,0.0,4.0,21,0.00,,,0.00,,2013-06-06 01:32:00,
2013-06-05 19:42:00,72.0,30.0,29.95,WSW,257,0.0,4.0,21,0.00,,,0.00,,2013-06-06 01:42:00,
2013-06-05 19:52:00,71.0,30.0,29.95,WSW,257,0.0,5.0,22,0.00,,,0.00,,2013-06-06 01:52:00,
2013-06-05 20:01:00,70.0,29.0,29.94,WSW,257,1.0,4.0,22,0.00,,,0.00,,2013-06-06 02:01:00,
2013-06-05 20:11:00,70.0,29.0,29.94,WSW,257,1.0,4.0,22,0.00,,,0.00,,2013-06-06 02:11:00,
2013-06-05 20:22:00,70.0,30.0,29.95,WSW,257,0.0,1.0,23,0.00,,,0.00,,2013-06-06 02:22:00,
2013-06-05 20:32:00,69.0,37.0,29.95,WSW,257,0.0,6.0,31,0.00,,,0.00,,2013-06-06 02:32:00,
2013-06-05 20:42:00,69.0,37.0,29.95,WSW,257,0.0,6.0,31,0.00,,,0.00,,2013-06-06 02:42:00,
2013-06-05 20:52:00,69.0,37.0,29.95,WSW,257,0.0,6.0,31,0.00,,,0.00,,2013-06-06 02:52:00,
2013-06-05 21:02:00,66.0,40.0,29.95,WSW,257,0.0,3.0,38,0.00,,,0.00,,2013-06-06 03:02:00,
2013-06-05 21:12:00,66.0,40.0,29.95,WSW,257,0.0,3.0,38,0.00,,,0.00,,2013-06-06 03:12:00,
2013-06-05 21:22:00,64.0,40.0,29.94,WSW,257,0.0,1.0,41,0.00,,,0.00,,2013-06-06 03:22:00,
2013-06-05 21:33:00,64.0,40.0,29.94,WSW,257,0.0,1.0,42,0.00,,,0.00,,2013-06-06 03:33:00,
2013-06-05 21:43:00,64.0,40.0,29.94,WSW,257,0.0,1.0,42,0.00,,,0.00,,2013-06-06 03:43:00,
2013-06-05 21:52:00,63.0,40.0,29.95,WSW,257,0.0,3.0,43,0.00,,,0.00,,2013-06-06 03:52:00,
2013-06-05 22:02:00,63.0,40.0,29.95,WSW,257,0.0,2.0,43,0.00,,,0.00,,2013-06-06 04:02:00,
2013-06-05 22:13:00,63.0,40.0,29.95,WSW,257,0.0,2.0,43,0.00,,,0.00,,2013-06-06 04:13:00,
2013-06-05 22:23:00,62.0,39.0,29.95,WSW,257,0.0,3.0,43,0.00,,,0.00,,2013-06-06 04:23:00,
2013-06-05 22:33:00,61.0,40.0,29.95,WSW,257,0.0,0.0,45,0.00,,,0.00,,2013-06-06 04:33:00,
2013-06-05 22:42:00,60.0,39.0,29.95,WSW,257,0.0,0.0,46,0.00,,,0.00,,2013-06-06 04:42:00,
2013-06-05 22:52:00,60.0,39.0,29.95,WSW,257,0.0,0.0,46,0.00,,,0.00,,2013-06-06 04:52:00,
2013-06-05 23:02:00,60.0,40.0,29.95,WSW,257,0.0,0.0,48,0.00,,,0.00,,2013-06-06 05:02:00,
2013-06-05 23:12:00,60.0,40.0,29.95,WSW,257,0.0,0.0,48,0.00,,,0.00,,2013-06-06 05:12:00,
2013-06-05 23:22:00,59.0,41.0,29.95,WSW,257,0.0,0.0,51,0.00,,,0.00,,2013-06-06 05:22:00,
2013-06-05 23:32:00,58.0,40.0,29.95,WSW,257,0.0,0.0,52,0.00,,,0.00,,2013-06-06 05:32:00,
2013-06-05 23:42:00,58.0,40.0,29.95,WSW,257,0.0,0.0,52,0.00,,,0.00,,2013-06-06 05:42:00,
2013-06-05 23:52:00,58.0,41.0,29.95,WSW,257,0.0,0.0,54,0.00,,,0.00,,2013-06-06 05:52:00,